Sylvania, OH

4:39 PM EST on February 24, 2017 (GMT -0500)
Lambertville

Weather History for KDUH - November, 2013

Change the Weather History Date:

Thursday, November 14, 2013

  Actual Average (KTOL) Record (KTOL)
Temperature  
Mean Temperature 42 °F -  
Max Temperature 53 °F 47 °F 72 °F (1909)
Min Temperature 32 °F 29 °F 11 °F (1986)
Degree Days  
Heating Degree Days 22    
Moisture  
Dew Point 21 °F    
Average Humidity 46    
Maximum Humidity 64    
Minimum Humidity 24    
Precipitation  
Precipitation 0.00 in - - ()
Sea Level Pressure  
Sea Level Pressure 30.11 in    
Wind  
Wind Speed 13 mph (SW)    
Max Wind Speed 18 mph    
Max Gust Speed 29 mph    
Visibility 10 miles    
Events      
Averages and records for this station are not official NWS values.
T = Trace of Precipitation, MM = Missing Value Source: NWS Daily Summary

Daily Weather History Graph

Daily Weather History Graph

Search for Another Location

Airport or City:

Trip Planner

Search our weather history database for the weather conditions in past years. The results will help you decide how hot, cold, wet, or windy it might be!

Date:

Astronomy

Nov. 14, 2013 Rise Set
Actual Time 7:22 AM EST 5:14 PM EST
Civil Twilight 6:53 AM EST 5:44 PM EST
Nautical Twilight 6:19 AM EST 6:18 PM EST
Astronomical Twilight 5:46 AM EST 6:51 PM EST
Moon 3:37 PM EST (11/14) 4:14 AM EST (11/14)
Length of Visible Light 10h 51m
Length of Day
9h 51m
Waxing Gibbous, 91% of the Moon is Illuminated
Nov 14
Waxing Gibbous
Nov 17
Full
Nov 25
Last Quarter
Dec 2
New
Dec 9
First Quarter

Hourly Weather History & Observations

Time (EST) Temp. Windchill Dew Point Humidity Pressure Visibility Wind Dir Wind Speed Gust Speed Precip Events Conditions
12:15 AM 33.8 °F 23.5 °F 19.4 °F 56% 30.20 in 10.0 mi SW 16.1 mph 23.0 mph N/A   Clear
12:35 AM 33.8 °F 23.9 °F 19.4 °F 56% 30.20 in 10.0 mi SW 15.0 mph 24.2 mph N/A   Clear
12:55 AM 33.8 °F 25.3 °F 19.4 °F 56% 30.20 in 10.0 mi SW 11.5 mph 18.4 mph N/A   Clear
1:15 AM 33.8 °F 24.3 °F 17.6 °F 52% 30.20 in 10.0 mi SW 13.8 mph 19.6 mph N/A   Clear
1:35 AM 33.8 °F 23.9 °F 19.4 °F 56% 30.20 in 10.0 mi WSW 15.0 mph 26.5 mph N/A   Clear
1:55 AM 33.8 °F 25.8 °F 19.4 °F 56% 30.21 in 10.0 mi WSW 10.4 mph 20.7 mph N/A   Clear
2:15 AM 33.8 °F 25.3 °F 19.4 °F 56% 30.21 in 10.0 mi WSW 11.5 mph 23.0 mph N/A   Clear
2:35 AM 32.0 °F 22.5 °F 19.4 °F 60% 30.21 in 10.0 mi WSW 12.7 mph 23.0 mph N/A   Clear
2:55 AM 32.0 °F 22.1 °F 19.4 °F 60% 30.21 in 10.0 mi WSW 13.8 mph 20.7 mph N/A   Clear
3:15 AM 32.0 °F 22.1 °F 19.4 °F 60% 30.21 in 10.0 mi SW 13.8 mph 19.6 mph N/A   Clear
3:35 AM 32.0 °F 22.5 °F 21.2 °F 64% 30.21 in 10.0 mi WSW 12.7 mph 18.4 mph N/A   Clear
3:55 AM 32.0 °F 23.0 °F 21.2 °F 64% 30.20 in 10.0 mi SW 11.5 mph 17.3 mph N/A   Clear
4:15 AM 32.0 °F 24.2 °F 21.2 °F 64% 30.20 in 10.0 mi WSW 9.2 mph 17.3 mph N/A   Clear
4:35 AM 32.0 °F 22.5 °F 21.2 °F 64% 30.20 in 10.0 mi SW 12.7 mph 18.4 mph N/A   Clear
4:55 AM 32.0 °F 24.2 °F 21.2 °F 64% 30.20 in 10.0 mi SW 9.2 mph 19.6 mph N/A   Clear
5:16 AM 32.0 °F 22.5 °F 21.2 °F 64% 30.19 in 10.0 mi SW 12.7 mph 20.7 mph N/A   Clear
5:35 AM 32.0 °F 23.0 °F 21.2 °F 64% 30.19 in 10.0 mi SW 11.5 mph 17.3 mph N/A   Clear
5:55 AM 32.0 °F 21.6 °F 21.2 °F 64% 30.18 in 10.0 mi SW 15.0 mph 24.2 mph N/A   Clear
6:15 AM 32.0 °F 23.6 °F 21.2 °F 64% 30.18 in 10.0 mi SW 10.4 mph 19.6 mph N/A   Clear
6:35 AM 33.8 °F 26.4 °F 21.2 °F 60% 30.18 in 10.0 mi SW 9.2 mph 21.9 mph N/A   Clear
6:55 AM 33.8 °F 26.4 °F 21.2 °F 60% 30.17 in 10.0 mi SW 9.2 mph 17.3 mph N/A   Clear
7:15 AM 33.8 °F 26.4 °F 21.2 °F 60% 30.17 in 10.0 mi SW 9.2 mph 21.9 mph N/A   Clear
7:35 AM 33.8 °F 25.8 °F 21.2 °F 60% 30.16 in 10.0 mi SW 10.4 mph 21.9 mph N/A   Clear
7:55 AM 33.8 °F 25.8 °F 21.2 °F 60% 30.17 in 10.0 mi SW 10.4 mph 18.4 mph N/A   Clear
8:15 AM 33.8 °F 25.3 °F 21.2 °F 60% 30.17 in 10.0 mi SW 11.5 mph 20.7 mph N/A   Clear
8:35 AM 35.6 °F 26.6 °F 21.2 °F 56% 30.16 in 10.0 mi SW 13.8 mph 20.7 mph N/A   Clear
8:55 AM 35.6 °F 27.5 °F 21.2 °F 56% 30.16 in 10.0 mi SW 11.5 mph 20.7 mph N/A   Clear
9:15 AM 37.4 °F 29.8 °F 21.2 °F 52% 30.16 in 10.0 mi SW 11.5 mph 18.4 mph N/A   Clear
9:35 AM 37.4 °F 29.8 °F 21.2 °F 52% 30.16 in 10.0 mi SW 11.5 mph 20.7 mph N/A   Clear
9:55 AM 41.0 °F 35.8 °F 21.2 °F 45% 30.16 in 10.0 mi SW 8.1 mph 28.8 mph N/A   Clear
10:15 AM 41.0 °F 34.7 °F 21.2 °F 45% 30.16 in 10.0 mi SW 10.4 mph 17.3 mph N/A   Clear
10:35 AM 42.8 °F 35.4 °F 21.2 °F 42% 30.16 in 10.0 mi WSW 15.0 mph 23.0 mph N/A   Clear
10:49 AM 42.8 °F 37.5 °F 21.2 °F 42% 30.15 in 10.0 mi SSW 9.2 mph 18.4 mph N/A   Clear
11:17 AM 44.6 °F 39.7 °F 21.2 °F 39% 30.14 in 10.0 mi SW 9.2 mph 16.1 mph N/A   Clear
11:37 AM 46.4 °F 40.7 °F 21.2 °F 37% 30.13 in 10.0 mi WSW 12.7 mph 19.6 mph N/A   Clear
11:38 AM 44.6 °F 39.2 °F 21.2 °F 39% 30.13 in 10.0 mi SW 10.4 mph 19.6 mph N/A   Clear
11:55 AM 44.6 °F 38.1 °F 21.2 °F 39% 30.12 in 10.0 mi SSW 13.8 mph 20.7 mph N/A   Clear
12:15 PM 46.4 °F 41.5 °F 21.2 °F 37% 30.10 in 10.0 mi SW 10.4 mph 21.9 mph N/A   Clear
12:35 PM 46.4 °F 40.7 °F 21.2 °F 37% 30.10 in 10.0 mi SW 12.7 mph 18.4 mph N/A   Clear
12:55 PM 48.2 °F - 21.2 °F 34% 30.09 in 10.0 mi SSW 13.8 mph 18.4 mph N/A   Clear
1:15 PM 50.0 °F - 21.2 °F 32% 30.07 in 10.0 mi SSW 16.1 mph 23.0 mph N/A   Clear
1:35 PM 50.0 °F - 21.2 °F 32% 30.06 in 10.0 mi SSW 15.0 mph 21.9 mph N/A   Clear
1:55 PM 50.0 °F - 21.2 °F 32% 30.05 in 10.0 mi SSW 18.4 mph 21.9 mph N/A   Clear
2:15 PM 51.8 °F - 21.2 °F 30% 30.04 in 10.0 mi SW 12.7 mph 23.0 mph N/A   Clear
2:35 PM 51.8 °F - 21.2 °F 30% 30.04 in 10.0 mi SW 10.4 mph 16.1 mph N/A   Clear
2:55 PM 51.8 °F - 19.4 °F 28% 30.04 in 10.0 mi SW 15.0 mph 25.3 mph N/A   Clear
3:15 PM 53.6 °F - 19.4 °F 26% 30.04 in 10.0 mi SSW 11.5 mph 18.4 mph N/A   Clear
3:35 PM 53.6 °F - 19.4 °F 26% 30.04 in 10.0 mi SSW 15.0 mph 20.7 mph N/A   Clear
3:55 PM 53.6 °F - 17.6 °F 24% 30.03 in 10.0 mi SW 11.5 mph 19.6 mph N/A   Clear
4:15 PM 51.8 °F - 17.6 °F 26% 30.03 in 10.0 mi SW 12.7 mph 27.6 mph N/A   Clear
4:35 PM 51.8 °F - 19.4 °F 28% 30.04 in 10.0 mi SSW 16.1 mph 20.7 mph N/A   Clear
4:56 PM 50.0 °F - 19.4 °F 30% 30.04 in 10.0 mi SSW 8.1 mph 17.3 mph N/A   Clear
5:15 PM 48.2 °F - 23.0 °F 37% 30.04 in 10.0 mi SSW 11.5 mph 16.1 mph N/A   Clear
5:35 PM 46.4 °F 40.4 °F 23.0 °F 40% 30.04 in 10.0 mi SSW 13.8 mph 19.6 mph N/A   Clear
5:55 PM 46.4 °F 41.5 °F 23.0 °F 40% 30.04 in 10.0 mi SSW 10.4 mph 16.1 mph N/A   Clear
6:15 PM 46.4 °F 41.1 °F 23.0 °F 40% 30.04 in 10.0 mi SSW 11.5 mph 19.6 mph N/A   Clear
6:35 PM 46.4 °F 40.7 °F 21.2 °F 37% 30.04 in 10.0 mi SSW 12.7 mph 24.2 mph N/A   Clear
6:55 PM 48.2 °F - 19.4 °F 32% 30.04 in 10.0 mi SSW 16.1 mph 24.2 mph N/A   Clear
7:15 PM 46.4 °F 40.7 °F 19.4 °F 34% 30.04 in 10.0 mi SSW 12.7 mph 23.0 mph N/A   Clear
7:35 PM 46.4 °F 41.5 °F 21.2 °F 37% 30.04 in 10.0 mi SW 10.4 mph - N/A   Clear
7:55 PM 46.4 °F 41.1 °F 21.2 °F 37% 30.04 in 10.0 mi SSW 11.5 mph 16.1 mph N/A   Clear
8:15 PM 44.6 °F 38.4 °F 23.0 °F 43% 30.04 in 10.0 mi SSW 12.7 mph 18.4 mph N/A   Clear
8:35 PM 44.6 °F 38.8 °F 23.0 °F 43% 30.04 in 10.0 mi SSW 11.5 mph - N/A   Clear
8:55 PM 42.8 °F 36.6 °F 23.0 °F 46% 30.04 in 10.0 mi SSW 11.5 mph 17.3 mph N/A   Clear
9:15 PM 42.8 °F 36.6 °F 23.0 °F 46% 30.04 in 10.0 mi SSW 11.5 mph 17.3 mph N/A   Clear
9:35 PM 42.8 °F 36.6 °F 23.0 °F 46% 30.04 in 10.0 mi SSW 11.5 mph - N/A   Clear
9:55 PM 42.8 °F 37.5 °F 23.0 °F 46% 30.05 in 10.0 mi SSW 9.2 mph - N/A   Clear
10:15 PM 42.8 °F 37.5 °F 23.0 °F 46% 30.06 in 10.0 mi SW 9.2 mph - N/A   Clear
10:35 PM 42.8 °F 36.6 °F 21.2 °F 42% 30.05 in 10.0 mi SW 11.5 mph 16.1 mph N/A   Clear
10:55 PM 42.8 °F 37.0 °F 21.2 °F 42% 30.06 in 10.0 mi SW 10.4 mph 18.4 mph N/A   Clear
11:15 PM 42.8 °F 38.0 °F 21.2 °F 42% 30.06 in 10.0 mi SW 8.1 mph 16.1 mph N/A   Clear
11:35 PM 42.8 °F 37.0 °F 21.2 °F 42% 30.06 in 10.0 mi SW 10.4 mph 17.3 mph N/A   Clear
11:55 PM 42.8 °F 39.3 °F 21.2 °F 42% 30.06 in 10.0 mi SW 5.8 mph - N/A   Clear